Location: Unspecified
(35.7250°N, 0.0000°E)
Time: 17:33:23
(UTC+00:00)

Tiros 1 - Pass Details

Date: 25 June 2019
Orbit: 630 x 664 km, 48.4° (Epoch: 16 July)

Event Time Altitude Azimuth Distance (km) Brightness Sun altitude
Rises 21:40:33 0° 240° (WSW) 2,962 10.6 -22.0°
Reaches altitude 10° 21:42:55 10° 243° (WSW) 2,048 9.8 -22.3°
Maximum altitude 21:47:37 66° 326° (NW) 706 7.5 -22.8°
Drops below altitude 10° 21:52:16 10° 49° (NE) 2,033 9.8 -23.3°
Sets 21:54:37 0° 52° (NE) 2,939 10.6 -23.6°
